This demonstration page uses our WeatherBlox Daily Observations layout. Learn more.

Left ArrowRight Arrow

Hourly Observations for March 10, 2020

Temp ( °F °C ) Dew Point ( °F °C ) Humidity (%) Winds ( mph kmh ) Pressure ( in mb ) Visibility ( mi km ) Precip ( " mm )
12:32 am 00:32 Partly Cloudy 32 0 28 -2.2 85 85 NNW 5 7 30.32 1027 10 16.0934 0 0
12:54 am 00:54 Clear 32 0 27 -2.8 82 82 SW 3 6 30.29 1026 10 16.0934 0 0
1:54 am 01:54 Clear 31 -0.6 27 -2.8 85 85 W 3 6 30.29 1026 10 16.0934 0 0
2:54 am 02:54 Clear 30 -1.1 27 -2.8 88 88 Calm 30.31 1026 10 16.0934 0 0
3:54 am 03:54 Clear 28 -2.2 25 -3.9 88 88 Calm 30.31 1027 10 16.0934 0 0
4:31 am 04:31 Mostly Cloudy 29 -1.7 26 -3.3 89 89 W 5 7 30.35 1028 10 16.0934 0 0
4:38 am 04:38 Partly Cloudy 29 -1.7 26 -3.3 89 89 W 3 6 30.35 1028 10 16.0934 0 0
4:54 am 04:54 Mostly Clear 29 -1.7 26 -3.3 89 89 WNW 6 9 30.32 1027 10 16.0934 0 0
5:54 am 05:54 Clear 28 -2.2 25 -3.9 88 88 WNW 6 9 30.33 1027 10 16.0934 0 0
6:04 am 06:04 Partly Cloudy with Mist and Fog 27 -2.8 25 -3.9 92 92 NW 6 9 30.36 1028 3 4.82802 0 0
6:12 am 06:12 Mostly Cloudy with Mist and Fog 28 -2.2 26 -3.3 92 92 NNW 5 7 30.36 1028 2.5 4.02335 0 0
6:19 am 06:19 Mostly Cloudy with Freezing Fog 28 -2.2 26 -3.3 92 92 NW 5 7 30.36 1028 0.5 0.80467 0 0
6:54 am 06:54 Mostly Cloudy with Mist and Fog 28 -2.2 27 -2.8 96 96 NNW 7 11 30.33 1027 0.75 1.207005 0 0
7:12 am 07:12 Mostly Cloudy with Mist and Fog 28 -2.2 26 -3.3 92 92 NNW 6 9 30.37 1028 1 1.60934 0 0
7:32 am 07:32 Mostly Cloudy with Mist and Fog 28 -2.2 27 -2.8 96 96 N 3 6 30.37 1028 0.75 1.207005 0 0
7:54 am 07:54 Mostly Cloudy with Freezing Fog 28 -2.2 26 -3.3 92 92 Calm 30.33 1027 0.5 0.80467 0 0
8:04 am 08:04 Mostly Cloudy with Freezing Fog 28 -2.2 27 -2.8 96 96 Calm 30.37 1028 0.25 0.402335 0 0
8:54 am 08:54 Mostly Cloudy with Freezing Fog 28 -2.2 27 -2.8 96 96 S 6 9 30.33 1027 0.5 0.80467 0 0
9:41 am 09:41 Mostly Cloudy with Freezing Fog 29 -1.7 27 -2.8 92 92 SSW 3 6 30.37 1028 0.25 0.402335 0 0
9:50 am 09:50 Cloudy with Freezing Fog 28 -2 28 -2 100 100 WSW 3 6 30.37 1028 0.5 0.80467 0 0
9:54 am 09:54 Cloudy with Freezing Fog 29 -1.7 28 -2.2 96 96 Calm 30.34 1027 0.5 0.80467 0 0
10:54 am 10:54 Cloudy with Mist and Fog 30 -1.1 29 -1.7 96 96 Calm 30.32 1027 1 1.60934 0 0
11:03 am 11:03 Cloudy with Mist and Fog 30 -1.1 29 -1.7 96 96 S 5 7 30.36 1028 3 4.82802 0 0
11:54 am 11:54 Cloudy 32 0 31 -0.6 96 96 VRB 3 6 30.31 1027 7 11.26538 0 0
12:11 pm 12:11 Cloudy with Mist and Fog 33 0.6 31 -0.6 92 92 S 6 9 30.34 1027 6 9.65604 0 0
12:43 pm 12:43 Mostly Cloudy 34 1.1 31 -0.6 89 89 S 7 11 30.34 1028 8 12.87472 0 0
12:54 pm 12:54 Cloudy with Light Rain 35 1.7 32 0 89 89 S 7 11 30.32 1027 8 12.87472 0.001 0.001
1:03 pm 13:03 Cloudy 35 1.7 31 -0.6 85 85 S 5 7 30.33 1027 8 12.87472 0.001 0.001
1:14 pm 13:14 Cloudy 35 1.7 31 -0.6 85 85 Calm 30.33 1027 9 14.48406 0.001 0.001
1:52 pm 13:52 Cloudy with Light Rain 36 2 32 0 87 87 Calm 30.31 1026 10 16.0934 0.001 0.001
1:54 pm 13:54 Cloudy 36 2.2 32 0 86 86 Calm 30.29 1026 10 16.0934 0.001 0.001
2:54 pm 14:54 Cloudy 39 3.9 34 1.1 82 82 Calm 30.25 1024 10 16.0934 0 0
3:54 pm 15:54 Cloudy 41 5 34 1.1 76 76 SE 3 6 30.21 1023 10 16.0934 0 0
4:03 pm 16:03 Cloudy 41 5 34 1.1 76 76 VRB 3 6 30.22 1023 10 16.0934 0 0
4:54 pm 16:54 Mostly Cloudy 44 6.7 36 2.2 73 73 SSE 8 13 30.16 1022 10 16.0934 0 0
5:54 pm 17:54 Cloudy 45 7.2 37 2.8 74 74 SSE 9 15 30.15 1021 10 16.0934 0 0
6:07 pm 18:07 Mostly Cloudy 44 6.7 37 2.8 76 76 SE 9 15 30.15 1021 10 16.0934 0 0
6:24 pm 18:24 Cloudy 44 6.7 37 2.8 76 76 SE 8 13 30.14 1021 10 16.0934 0 0
6:54 pm 18:54 Mostly Sunny 44 6.7 37 2.8 76 76 S 8 13 30.13 1020 10 16.0934 0 0
7:54 pm 19:54 Clear 41 5 35 1.7 79 79 Calm 30.14 1021 10 16.0934 0 0
8:26 pm 20:26 Mostly Cloudy 38 3.3 34 1.1 86 86 Calm 30.17 1022 10 16.0934 0 0
8:54 pm 20:54 Cloudy 38 3.3 35 1.7 89 89 N 3 6 30.16 1021 10 16.0934 0 0
9:09 pm 21:09 Cloudy 40 4.4 36 2.2 86 86 NNW 5 7 30.19 1022 10 16.0934 0 0
9:31 pm 21:31 Partly Cloudy 36 2.2 33 0.6 89 89 N 6 9 30.19 1022 9 14.48406 0 0
9:54 pm 21:54 Clear 37 2.8 34 1.1 89 89 Calm 30.16 1021 9 14.48406 0 0
10:54 pm 22:54 Mostly Cloudy 38 3.3 35 1.7 89 89 NNE 3 6 30.16 1021 10 16.0934 0 0
11:54 pm 23:54 Mostly Clear with Mist and Fog 36 2.2 34 1.1 93 93 N 8 13 30.13 1020 5 8.0467 0.001 0.001

Powered by AerisWeather